Weather in Chingis

Russia / Novosibirsk Oblast     54°07′31″N   81°37′13″E
temp.,
°C
wind,
m/s
gust,
m/s
humid.,
%
clouds,
%
prec.,
mm/h
press.,
hPa
HPBL,
m
19 september, sun
sun1901:00+8ssw4859100 0.0 1010359
04:00+7ssw5106093 0.0 1010443
07:00+5s51369100 0.0 1008397
10:00+9ssw61354100 0.0 1006676
13:00+15ssw71438100 0.0 10032194
16:00+12w8115753 0.0 10041429
19:00+9wsw6956100 0.0 10051198
22:00+8w5106577 0.1 1007966
20 september, mon
mon2001:00+5wsw61181100 0.2 1008476
04:00+4sw5118659 0.3 1008461
07:00+3sw6127996 0.3 1010686
10:00+4sw81377100 0.1 10111170
13:00+5wsw81279100 0.5 10121287
16:00+5wsw81281100 0.8 10121241
19:00+4wsw51084100 1.4 10121017
22:00+3w41087100 0.2 1013617
21 september, tue
tue2101:00+2w4897100 0.3 1013580
04:00+2w5885100 0.1 1014855
07:00+1wsw51092100 0.2 1015540
10:00+2wsw61196100 0.1 1016570
13:00+3w51096100 0.3 1017599
16:00+5wnw5877100 0.1 1018986
19:00+4wnw377797 0.2 1019530
22:00+3w2686100 0.1 1020270
22 september, wed
wed2201:00+1wsw359276 0.1 102181
04:000wsw3697100 0.0 1021152
07:00+1wsw3694100 0.1 1021441
10:00+2wsw3698100 0.1 1021420
13:00+3w3796100 0.4 1021404
16:00+5w467198 0.4 10211038
19:00+4w477899 0.8 1021617
22:00+1wsw3788100 0.1 1021226
23 september, thu
thu2301:000sw378999 0.1 1021166
04:00+1sw4892100 0.0 1020408
07:00+1ssw3799100 0.8 1020231
10:00+2sw3599100 1.3 1020286
13:00+2wsw2498100 1.6 1021334
16:00+3nnw3495100 0.3 1021361
19:00+2n359396 0.4 1023491
22:00+1nnw4797100 0.1 1025385